When you browse on this site, cookies collect data to enhance your experience and personalize the content and advertising you see.
Visit our Privacy Policy to learn more. By continuing to use the site, you agree to this use of cookies and data.
  • In United Kingdom
  • List of Countries
  • For 7 days
  • Water Temperature
  • Weather Map
  • Weather Widgets
  • user-avatar
    Login

    Hourly Weather Manchester

    Today, 21 November, Thursday

    Time Temperature Precipitation Wind Pressure Humidity
    00:00 +1°C° 0 mm 6 mps 751 mmHg 82%
    01:00 +1°C° 0 mm 6 mps 750 mmHg 84%
    02:00 +1°C° 0 mm 5 mps 750 mmHg 85%
    03:00 +1°C° 0 mm 5 mps 749 mmHg 86%
    04:00 +1°C° 0 mm 5 mps 749 mmHg 86%
    05:00 +1°C° 0 mm 5 mps 749 mmHg 87%
    06:00 +1°C° 0 mm 5 mps 749 mmHg 87%
    07:00 +1°C° 0 mm 6 mps 749 mmHg 86%
    08:00 +1°C° 0 mm 6 mps 749 mmHg 85%
    09:00 +1°C° 0 mm 6 mps 749 mmHg 84%
    10:00 +2°C° 0 mm 6 mps 748 mmHg 82%
    11:00 +3°C° 0 mm 6 mps 748 mmHg 80%
    12:00 +3°C° 0 mm 6 mps 748 mmHg 78%
    13:00 +3°C° 0 mm 6 mps 747 mmHg 79%
    14:00 +3°C° 0 mm 6 mps 747 mmHg 80%
    15:00 +3°C° 0 mm 6 mps 746 mmHg 80%
    16:00 +3°C° 0 mm 6 mps 746 mmHg 81%
    17:00 +3°C° 0 mm 6 mps 746 mmHg 82%
    18:00 +3°C° 0 mm 6 mps 746 mmHg 83%
    19:00 +3°C° 0 mm 6 mps 745 mmHg 83%
    20:00 +3°C° 0 mm 6 mps 745 mmHg 84%
    21:00 +3°C° 0 mm 6 mps 745 mmHg 84%
    22:00 +3°C° 0 mm 6 mps 744 mmHg 86%
    23:00 +3°C° 0 mm 6 mps 744 mmHg 87%

    Tomorrow, 22 November, Friday

    Time Temperature Precipitation Wind Pressure Humidity
    00:00 +3°C° 0 mm 5 mps 744 mmHg 88%
    01:00 +3°C° 0.1 mm 5 mps 743 mmHg 89%
    02:00 +5°C° 0.1 mm 5 mps 743 mmHg 89%
    03:00 +5°C° 0.1 mm 5 mps 742 mmHg 90%
    04:00 +5°C° 0.2 mm 5 mps 742 mmHg 90%
    05:00 +5°C° 0.2 mm 4 mps 742 mmHg 91%
    06:00 +5°C° 0.2 mm 4 mps 742 mmHg 91%
    07:00 +5°C° 0.3 mm 4 mps 742 mmHg 91%
    08:00 +5°C° 0.3 mm 4 mps 741 mmHg 90%
    09:00 +6°C° 0.3 mm 4 mps 741 mmHg 90%
    10:00 +6°C° 0 mm 4 mps 741 mmHg 87%
    11:00 +6°C° 0 mm 4 mps 742 mmHg 84%
    12:00 +7°C° 0 mm 4 mps 742 mmHg 81%
    13:00 +7°C° 0 mm 4 mps 742 mmHg 82%
    14:00 +7°C° 0 mm 4 mps 742 mmHg 82%
    15:00 +8°C° 0 mm 3 mps 742 mmHg 82%
    16:00 +7°C° 0 mm 3 mps 742 mmHg 83%
    17:00 +7°C° 0 mm 3 mps 742 mmHg 84%
    18:00 +7°C° 0 mm 3 mps 743 mmHg 84%
    19:00 +7°C° 0 mm 3 mps 743 mmHg 85%
    20:00 +5°C° 0 mm 3 mps 744 mmHg 86%
    21:00 +5°C° 0 mm 3 mps 744 mmHg 86%
    22:00 +5°C° 0 mm 3 mps 744 mmHg 88%
    23:00 +6°C° 0 mm 4 mps 744 mmHg 90%

    Day after tomorrow, 23 November, Saturday

    Time Temperature Precipitation Wind Pressure Humidity
    00:00 +6°C° 0 mm 4 mps 745 mmHg 92%
    01:00 +6°C° 0 mm 5 mps 744 mmHg 91%
    02:00 +6°C° 0 mm 5 mps 744 mmHg 90%
    03:00 +5°C° 0 mm 6 mps 744 mmHg 89%
    04:00 +5°C° 0.2 mm 6 mps 744 mmHg 89%
    05:00 +5°C° 0.2 mm 6 mps 745 mmHg 89%
    06:00 +7°C° 0.2 mm 6 mps 745 mmHg 89%
    07:00 +7°C° 0.7 mm 6 mps 745 mmHg 89%
    08:00 +7°C° 0.7 mm 6 mps 745 mmHg 90%
    09:00 +7°C° 0.7 mm 6 mps 745 mmHg 90%
    10:00 +7°C° 0.6 mm 6 mps 746 mmHg 88%
    11:00 +6°C° 0.6 mm 7 mps 746 mmHg 86%
    12:00 +6°C° 0.6 mm 7 mps 746 mmHg 85%
    13:00 +6°C° 0.7 mm 7 mps 746 mmHg 86%
    14:00 +7°C° 0.7 mm 6 mps 746 mmHg 88%
    15:00 +7°C° 0.7 mm 6 mps 746 mmHg 89%
    16:00 +7°C° 0.8 mm 6 mps 746 mmHg 89%
    17:00 +7°C° 0.8 mm 5 mps 746 mmHg 89%
    18:00 +7°C° 0.8 mm 5 mps 747 mmHg 89%
    19:00 +7°C° 0.4 mm 4 mps 747 mmHg 90%
    20:00 +7°C° 0.4 mm 4 mps 747 mmHg 91%
    21:00 +8°C° 0.4 mm 3 mps 747 mmHg 92%
    22:00 +8°C° 0.1 mm 3 mps 748 mmHg 93%
    23:00 +8°C° 0.1 mm 3 mps 748 mmHg 93%

    24 November, Sunday

    Time Temperature Precipitation Wind Pressure Humidity
    00:00 +8°C° 0.1 mm 2 mps 748 mmHg 93%
    01:00 +8°C° 0 mm 2 mps 748 mmHg 93%
    02:00 +7°C° 0 mm 2 mps 748 mmHg 94%
    03:00 +8°C° 0 mm 1 mps 748 mmHg 94%
    04:00 +8°C° 0 mm 1 mps 748 mmHg 94%
    05:00 +7°C° 0 mm 1 mps 748 mmHg 94%
    06:00 +7°C° 0 mm 1 mps 748 mmHg 95%
    07:00 +7°C° 0 mm 1 mps 748 mmHg 95%
    08:00 +7°C° 0 mm 1 mps 749 mmHg 94%
    09:00 +6°C° 0 mm 2 mps 749 mmHg 94%
    10:00 +7°C° 0 mm 2 mps 749 mmHg 92%
    11:00 +8°C° 0 mm 2 mps 749 mmHg 89%
    12:00 +8°C° 0 mm 2 mps 749 mmHg 87%
    13:00 +8°C° 0 mm 3 mps 749 mmHg 88%
    14:00 +8°C° 0 mm 3 mps 749 mmHg 89%
    15:00 +8°C° 0 mm 3 mps 748 mmHg 90%
    16:00 +8°C° 0 mm 3 mps 748 mmHg 91%
    17:00 +8°C° 0 mm 3 mps 748 mmHg 92%
    18:00 +7°C° 0 mm 4 mps 748 mmHg 92%
    19:00 +7°C° 0 mm 4 mps 747 mmHg 91%
    20:00 +8°C° 0 mm 4 mps 747 mmHg 90%
    21:00 +8°C° 0 mm 5 mps 746 mmHg 88%
    22:00 +8°C° 0.2 mm 5 mps 746 mmHg 89%
    23:00 +8°C° 0.2 mm 6 mps 745 mmHg 91%

    25 November, Monday

    Time Temperature Precipitation Wind Pressure Humidity
    00:00 +8°C° 0.2 mm 6 mps 744 mmHg 92%
    01:00 +9°C° 1 mm 6 mps 744 mmHg 92%
    02:00 +9°C° 1 mm 6 mps 743 mmHg 93%
    03:00 +10°C° 1 mm 5 mps 742 mmHg 94%
    04:00 +10°C° 0.2 mm 5 mps 742 mmHg 94%
    05:00 +10°C° 0.2 mm 5 mps 742 mmHg 94%
    06:00 +12°C° 0.2 mm 5 mps 742 mmHg 94%
    07:00 +10°C° 0.1 mm 5 mps 742 mmHg 91%
    08:00 +10°C° 0.1 mm 5 mps 743 mmHg 87%
    09:00 +9°C° 0.1 mm 6 mps 743 mmHg 83%
    10:00 +9°C° 0.1 mm 6 mps 743 mmHg 80%
    11:00 +10°C° 0.1 mm 7 mps 744 mmHg 77%
    12:00 +10°C° 0.1 mm 7 mps 744 mmHg 73%
    13:00 +10°C° 0 mm 7 mps 744 mmHg 74%
    14:00 +10°C° 0 mm 7 mps 744 mmHg 74%
    15:00 +9°C° 0 mm 7 mps 744 mmHg 75%
    16:00 +9°C° 0 mm 7 mps 744 mmHg 77%
    17:00 +9°C° 0 mm 7 mps 744 mmHg 79%
    18:00 +9°C° 0 mm 7 mps 745 mmHg 82%
    19:00 +9°C° 0 mm 7 mps 745 mmHg 82%
    20:00 +9°C° 0 mm 7 mps 746 mmHg 83%
    21:00 +9°C° 0 mm 7 mps 746 mmHg 84%
    22:00 +8°C° 0 mm 7 mps 747 mmHg 84%
    23:00 +8°C° 0 mm 6 mps 747 mmHg 84%

    26 November, Tuesday

    Time Temperature Precipitation Wind Pressure Humidity
    00:00 +8°C° 0 mm 6 mps 748 mmHg 84%
    01:00 +8°C° 0 mm 6 mps 748 mmHg 85%
    02:00 +8°C° 0 mm 5 mps 748 mmHg 86%
    03:00 +8°C° 0 mm 5 mps 748 mmHg 87%
    04:00 +8°C° 0 mm 5 mps 748 mmHg 87%
    05:00 +7°C° 0 mm 4 mps 748 mmHg 87%
    06:00 +7°C° 0 mm 4 mps 748 mmHg 87%
    07:00 +7°C° 0 mm 4 mps 748 mmHg 86%
    08:00 +7°C° 0 mm 4 mps 748 mmHg 86%
    09:00 +7°C° 0 mm 4 mps 748 mmHg 86%
    10:00 +7°C° 0 mm 4 mps 748 mmHg 86%
    11:00 +8°C° 0 mm 4 mps 748 mmHg 85%
    12:00 +10°C° 0 mm 4 mps 748 mmHg 85%
    13:00 +10°C° 0 mm 4 mps 747 mmHg 85%
    14:00 +10°C° 0 mm 4 mps 747 mmHg 86%
    15:00 +10°C° 0 mm 3 mps 746 mmHg 87%
    16:00 +10°C° 0.1 mm 3 mps 746 mmHg 88%
    17:00 +10°C° 0.1 mm 3 mps 746 mmHg 90%
    18:00 +10°C° 0.1 mm 3 mps 745 mmHg 91%
    19:00 +10°C° 0.5 mm 4 mps 745 mmHg 91%
    20:00 +10°C° 0.5 mm 4 mps 744 mmHg 90%
    21:00 +10°C° 0.5 mm 4 mps 744 mmHg 90%
    22:00 +10°C° 0 mm 4 mps 743 mmHg 90%
    23:00 +10°C° 0 mm 4 mps 743 mmHg 90%
    Show more